x

8454000 - Providence, Ri (foxr1) Weather Station

3:54 - Tue 17th Jan 2017 All times are EST. -5 hours from GMT.

  • Wind
    6mph, 8mph gusts
  • Sea Temp 38°f
  • Aire Temp 42°f
  • Sea Pressure 1020.8mb
  • 8454000 - Providence, Ri
  • 8454000 - Providence, Ri

More Historic Weather Station data

Upgrade to MSW Pro to gain access to the past 30 days of data for over 8000 Wavebouys and Weather Stations around the globe.

Join Pro

Comparision Forecast

View Surf forecast
   
mar 01/17 3:54 6 8 mph 1020.8mb 38f 42f
3:48 7 8 mph 1020.7mb 38f -
3:42 5 7 mph 1020.8mb 38f 42f
3:36 5 8 mph 1020.6mb 38f 42f
3:30 7 8 mph 1020.6mb 38f 42f
3:24 6 9 mph 1020.5mb 38f 42f
3:18 7 9 mph 1020.6mb 38f 42f
3:12 5 7 mph 1020.6mb 38f 42f
3:06 5 8 mph 1020.7mb 38f 42f
3:00 6 7 mph 1020.8mb 38f 42f
2:54 5 7 mph 1020.8mb 38f 42f
2:48 7 8 mph 1020.8mb 38f 42f
2:42 7 8 mph 1020.7mb 38f 42f
2:36 7 8 mph 1020.8mb 38f 42f
2:30 7 10 mph 1020.8mb 38f 42f
2:24 7 8 mph 1020.9mb 38f 42f
2:18 6 8 mph 1020.9mb - -
2:12 7 10 mph 1021mb 38f 42f
2:06 7 10 mph 1021mb 38f 42f
2:00 7 9 mph 1021mb 38f 42f
1:54 9 13 mph 1021mb 38f 42f
1:48 6 9 mph 1021mb 38f 42f
1:42 6 9 mph 1021.1mb 38f 42f
1:36 7 10 mph 1021.1mb 38f 42f
1:30 8 10 mph 1021.2mb 38f 41f
1:24 3 9 mph 1021.2mb 38f 41f
1:18 6 8 mph 1021.2mb 38f 42f
1:12 6 9 mph 1021.2mb 38f 41f
1:06 3 9 mph 1021.3mb 38f 41f
1:00 6 8 mph 1021.4mb 38f 41f
12:54 7 9 mph 1021.3mb 38f 41f
12:48 7 10 mph 1021.5mb 38f 40f
12:42 6 8 mph 1021.6mb 38f 40f
12:36 7 8 mph 1021.7mb 38f 40f
12:30 7 10 mph 1021.7mb 38f 40f
12:24 9 11 mph 1021.8mb 38f 40f
12:18 7 10 mph 1021.8mb 38f 40f
12:12 8 10 mph 1021.9mb 39f 39f
12:06 8 10 mph 1021.9mb 39f 39f
12:00 7 10 mph 1022mb 39f 39f
11:54 7 10 mph 1022.2mb 39f 39f
11:48 7 9 mph 1022.3mb 39f 39f
11:42 9 10 mph 1022.4mb 39f 38f
11:36 9 10 mph 1022.4mb 39f 39f
11:30 6 9 mph 1022.5mb 39f 38f
11:24 7 8 mph 1022.5mb 39f 38f
11:18 7 9 mph 1022.6mb 39f 38f
11:12 7 10 mph 1022.6mb 39f 38f
11:06 6 7 mph 1022.8mb 39f 38f
11:00 5 7 mph 1022.8mb 39f 38f
10:54 5 7 mph 1022.9mb 39f 38f
10:48 6 8 mph 1022.9mb - -
10:42 3 9 mph 1023mb 39f 38f
10:36 7 9 mph 1023.1mb 39f 38f
10:30 6 9 mph 1023.2mb 39f 38f
10:24 7 9 mph 1023.2mb 39f 38f
10:18 5 8 mph 1023.2mb 39f 38f
10:12 7 9 mph 1023.2mb 39f 38f
10:06 3 6 mph 1023.3mb 39f 38f
10:00 5 7 mph 1023.5mb 39f 38f
9:54 3 6 mph 1023.6mb 39f 37f
9:48 3 7 mph 1023.7mb 39f 37f
9:42 6 8 mph 1023.6mb 39f 36f
9:36 3 5 mph 1023.8mb 39f 36f
9:30 1 3 mph 1023.7mb 39f 36f
9:24 2 3 mph 1023.7mb 39f 36f
9:18 2
mph
1023.7mb 39f 35f
9:12  -  1 mph 1023.7mb 39f 35f
9:06 1 2 mph 1023.6mb 39f 35f
9:00 2 3 mph 1023.5mb 39f 35f
8:54 2
mph
1023.5mb 39f 35f
8:48 3 5 mph 1023.5mb 39f -
8:42 3
mph
1023.7mb 39f 34f
8:36 3
mph
1023.6mb 39f 34f
8:30 3
mph
1023.6mb 39f 34f
8:24 3
mph
1023.6mb 39f 34f
8:18 2 3 mph 1023.5mb - -
8:12  -  2 mph 1023.4mb 39f 34f
8:06 1 2 mph 1023.2mb 39f 34f
8:00 2 3 mph 1023mb 39f 34f
7:54 2
mph
1022.8mb 39f 34f
7:48  -  1 mph 1022.8mb 39f 33f
7:42 2
mph
1022.6mb 39f 33f
7:36 2 3 mph 1022.5mb 39f 33f
7:30 2 3 mph 1022.5mb 39f 33f
7:24 1 2 mph 1022.5mb 39f 33f
7:18 2
mph
1022.4mb 39f -
7:12 2
mph
1022.3mb 40f 33f
7:06 1 3 mph 1022.4mb 40f 33f
7:00 2 3 mph 1022.4mb 40f 33f
6:54 3 6 mph 1022.3mb 40f 33f
6:48 5 6 mph 1022.3mb 40f -
6:42 3 5 mph 1022.2mb 40f 33f
6:36 5
mph
1022.3mb 40f 33f
6:30 3 5 mph 1022.2mb 40f 33f
6:24 3 5 mph 1022mb 40f 33f
6:18 2 3 mph 1021.9mb 40f 33f
6:12 3
mph
1021.9mb 40f 33f
6:06 1 2 mph 1022mb 40f 34f
6:00 1 2 mph 1021.9mb 39f 34f
5:54  -  2 mph 1022mb 39f 34f
5:48  -  1 mph 1022mb 38f 34f
5:42  -  1 mph 1021.9mb 38f 34f
5:36  -  2 mph 1022mb 38f 34f
5:30  -  1 mph 1022mb 38f 35f
5:24 1
mph
1022mb 38f 35f
5:18  -  1 mph 1021.9mb 37f 35f
5:12  -  1 mph 1021.9mb 37f 34f
5:06  -  2 mph 1021.9mb 37f 35f
5:00 2 3 mph 1021.9mb 37f 35f
4:54 2 3 mph 1021.8mb 37f 35f
4:48 3 5 mph 1021.9mb 37f 35f
4:42 1 2 mph 1021.9mb 37f 35f
4:36 2 6 mph 1021.9mb 37f 35f
4:30 2 6 mph 1021.9mb 37f 35f
4:24 5 6 mph 1021.8mb 37f 35f
4:18 2 3 mph 1021.9mb 37f 35f
4:12  -  3 mph 1021.8mb 37f 35f
4:06 2 6 mph 1021.9mb 37f 35f
4:00 3 7 mph 1021.8mb 38f 35f
3:54 5 6 mph 1021.8mb 38f 35f
3:48 5 7 mph 1021.8mb 38f 35f
3:42 3 6 mph 1021.8mb 38f 35f
3:36 3 7 mph 1022mb 38f 35f
3:30 5 8 mph 1022mb 38f 35f
3:24 5 7 mph 1022mb 38f 35f
3:18 6 8 mph 1022mb 38f 35f
3:12 6 7 mph 1022mb 38f 35f
3:06 6 8 mph 1022.1mb 38f 35f
3:00 6 7 mph 1022.1mb 38f 35f
2:54 5 6 mph 1022.1mb 38f 35f
2:48 5 6 mph 1022.1mb 38f 35f
2:42 5 6 mph 1022.1mb 38f 35f
2:36 5 6 mph 1022.2mb 38f 35f
2:30 3 5 mph 1022.3mb 38f 35f
2:24 2
mph
1022.3mb 38f 35f
2:18 2
mph
1022.3mb 38f 35f
2:12 2
mph
1022.4mb 38f 35f
2:06 1 2 mph 1022.5mb 38f 35f
2:00 2 5 mph 1022.6mb 38f 35f
1:54 2 3 mph 1022.6mb 38f 35f
1:48 3
mph
1022.6mb - -
1:42 3 5 mph 1022.5mb - -
1:36 3 5 mph 1022.6mb - -
1:30 3 5 mph 1022.6mb - -
1:24 5 6 mph 1022.6mb 38f 35f
1:18 5 7 mph 1022.6mb 38f 35f
1:12 3 6 mph 1022.7mb 38f 35f
1:06 3 6 mph 1022.7mb 38f 35f
1:00 3 6 mph 1022.6mb 38f 35f
12:54 3 5 mph 1022.6mb 38f 35f
12:48 3 7 mph - - -
12:42 3 7 mph - - -
12:36 2 3 mph - - -
12:30 2 5 mph 1022.9mb 39f 34f
12:24 3 6 mph 1023mb 39f 34f
12:18 5 6 mph 1023mb 39f 34f
12:12 5
mph
1023.2mb 39f 34f
12:06 5 6 mph 1023.2mb 39f 34f
12:00 6
mph
1023.3mb 39f 34f
lun 01/16 11:54 6 7 mph 1023.3mb 39f 34f
11:48 6
mph
1023.4mb 39f 34f
11:42 6
mph
1023.6mb 40f 33f
11:36 5
mph
1023.7mb 40f 33f
11:30 3 5 mph 1023.7mb 40f 34f
11:24 3 5 mph 1023.8mb 40f 34f
11:18 5 6 mph 1023.8mb 40f 33f
11:12 5
mph
1023.8mb 40f 33f
11:06 5 6 mph 1023.9mb 40f 33f
11:00 5
mph
1023.9mb 40f 33f
10:54 3 5 mph 1023.9mb 40f 33f
10:48 5
mph
1024mb 40f 33f
10:42 5
mph
1024.1mb 40f 33f
10:36 5
mph
1024.2mb 40f 33f
10:30 3 5 mph 1024.2mb 40f 33f
10:24 3 5 mph 1024.3mb 39f 33f
10:18 5
mph
1024.3mb 39f 33f
10:12 3 5 mph 1024.2mb 39f 33f
10:06 5 6 mph 1024.3mb 39f 33f
10:00 5 6 mph 1024.3mb 39f 33f
9:54 5 7 mph 1024.4mb 39f 34f
9:48 6 7 mph 1024.4mb 39f 34f
9:42 6 7 mph 1024.5mb 39f 34f
9:36 5 7 mph 1024.5mb 39f 34f
9:30 3 6 mph 1024.6mb 39f 34f
9:24 3 7 mph 1024.7mb 39f 34f
9:18 6 8 mph 1024.7mb 39f 34f
9:12 5 8 mph 1024.7mb 39f 33f
9:06 5 7 mph 1024.6mb 39f 33f
9:00 5 7 mph 1024.7mb 39f 33f
8:54 6 8 mph 1024.8mb 39f 33f
8:48 5 7 mph 1024.9mb 39f 33f
8:42 6 8 mph 1025mb 39f 33f
8:36 6 7 mph 1025mb 39f 33f
8:30 5 7 mph 1025mb 39f 33f
8:24 5 7 mph 1025mb 39f 33f
8:18 5 6 mph 1025mb 39f 33f
8:12 5 6 mph 1025.1mb 39f 34f
8:06 5
mph
1025.2mb 39f 34f
8:00 5 6 mph 1025.1mb 39f 34f
7:54 5
mph
1025.2mb 39f 34f
7:48 5 6 mph 1025.2mb 39f 34f
7:42 5
mph
1025.2mb 39f 34f
7:36 3 5 mph 1025.2mb 39f 34f
7:30 3 5 mph 1025.2mb 39f 34f
7:24 3 6 mph 1025.3mb 39f 34f
7:18 5 7 mph 1025.4mb 39f 34f
7:12 5
mph
1025.3mb 39f 35f
7:06 5 6 mph 1025.4mb 40f 35f
7:00 5 6 mph 1025.5mb 40f 35f
6:54 6 8 mph 1025.6mb 40f 35f
6:48 5 8 mph 1025.6mb 40f 35f
6:42 6 8 mph 1025.6mb 40f 36f
6:36 6 8 mph 1025.6mb 40f 36f
6:30 5 7 mph 1025.6mb 40f 36f
6:24 6 8 mph 1025.6mb 40f 36f
6:18 6 8 mph 1025.4mb 40f 36f
6:12 6 11 mph 1025.4mb 40f 36f
6:06 5 10 mph 1025.3mb 40f 36f
6:00 8 10 mph 1025.3mb 40f 37f
5:54 8 14 mph 1025.3mb 40f 37f
5:48 9 14 mph 1025.3mb 40f 37f
5:42 13 15 mph 1025.3mb 39f 37f
5:36 8 13 mph 1025.3mb 39f 38f
5:30 6 11 mph 1025.2mb 39f 38f
5:24 7 10 mph 1025.2mb 38f 38f
5:18 5 7 mph 1025.2mb 38f 39f
5:12 6 9 mph 1025.2mb 38f 39f
5:06 5 6 mph 1025.1mb 38f 39f
5:00 6 7 mph 1025.2mb 38f 40f
4:54 3 7 mph 1025.2mb 38f 40f
4:48 3 6 mph 1025.2mb 37f 40f
4:42 5 9 mph 1025.2mb 37f 40f
4:36 5 8 mph 1025.2mb 37f 41f
4:30 5 8 mph 1025.2mb 37f 41f
4:24 6 10 mph 1025.2mb 37f 41f
4:18 7 10 mph 1025.3mb 37f 41f
4:12 9 13 mph 1025.3mb 37f 41f
4:06 5 10 mph 1025.4mb 37f 42f
4:00 5 8 mph 1025.4mb 37f 42f
3:54 7 9 mph 1025.5mb 37f 42f
3:48 8 10 mph 1025.5mb 37f 42f
3:42 7 8 mph 1025.5mb 37f 42f
3:36 6 9 mph 1025.5mb 37f 42f
3:30 5 11 mph 1025.4mb 37f 42f
3:24 9 14 mph 1025.5mb 37f 42f
3:18 7 13 mph 1025.4mb 38f 42f
3:12 8 11 mph 1025.5mb 38f 42f
3:06 9 13 mph 1025.5mb 38f 42f
3:00 8 11 mph 1025.5mb 38f 42f
2:54 8 11 mph 1025.6mb 38f 42f
2:48 9 14 mph 1025.5mb 38f 42f
2:42 7 11 mph 1025.5mb 38f 42f
2:36 8 11 mph 1025.6mb 38f 41f
2:30 10 14 mph 1025.7mb 38f 41f
2:24 6 13 mph 1025.7mb 38f 42f
2:18 9 13 mph 1025.9mb 38f 41f
2:12 8 11 mph 1025.9mb 38f 41f
2:06 9 15 mph 1026mb 38f 40f
2:00 8 14 mph 1026.1mb 38f 41f
1:54 8 14 mph 1026.1mb 38f 41f
1:48 9 13 mph 1026.1mb 38f 41f
1:42 9 13 mph 1026.1mb 38f 41f
1:36 9 13 mph 1026.2mb 38f 40f
1:30 7 14 mph 1026.3mb 38f 41f
1:24 10 14 mph 1026.4mb 38f 40f
1:18 10 16 mph 1026.5mb 38f 40f
1:12 13 17 mph 1026.7mb 38f 39f
1:06 10 15 mph 1026.7mb 38f 40f
1:00 10 15 mph 1026.7mb 38f 40f
12:54 9 15 mph 1026.7mb 38f 40f
12:48 11 16 mph 1026.9mb 38f 39f
12:42 9 15 mph 1027mb 38f 39f
12:36 8 14 mph 1027.2mb 38f 39f
12:30 7 13 mph 1027.2mb 38f 39f
12:24 9 16 mph 1027.3mb 38f 38f
12:18 8 16 mph 1027.3mb 38f 38f
12:12 10 15 mph 1027.4mb 38f 38f
12:06 13 16 mph 1027.6mb 38f 38f
12:00 11 16 mph 1027.9mb 39f 38f
11:54 8 16 mph 1028mb 39f 38f
11:48 9 14 mph 1028mb 39f 38f
11:42 10 15 mph 1028.1mb 39f 38f
11:36 9 16 mph 1028.3mb 39f 38f
11:30 10 18 mph 1028.3mb 39f 38f
11:24 13 16 mph 1028.4mb 39f 38f
11:18 8 13 mph 1028.5mb 39f 38f
11:12 8 17 mph 1028.7mb 39f 37f
11:06 11 14 mph 1028.8mb 39f 37f
11:00 8 10 mph 1029mb 39f 37f
10:54 8 11 mph 1029.1mb 39f 37f
10:48 5 7 mph 1029.2mb 39f 36f
10:42 5 7 mph 1029.3mb 39f 35f
10:36 2 7 mph 1029.4mb 39f 35f
10:30 5 10 mph 1029.6mb 39f 34f
10:24 6 8 mph 1029.6mb 39f 34f
10:18 5 8 mph 1029.7mb 40f 33f
10:12 3 6 mph 1029.8mb 40f 32f
10:06 5 6 mph 1029.8mb 40f 30f
10:00 3 5 mph 1029.9mb 40f 30f
9:54 3
mph
1029.9mb 40f 29f
9:48 2 3 mph 1030.1mb 40f 29f
9:42 2 3 mph 1030.1mb 40f 29f
9:36 2 3 mph 1030.1mb 40f 28f
9:30 1 3 mph 1030.1mb 39f 28f
9:24  -  2 mph 1030.1mb 39f 28f
9:18  -  2 mph 1030mb 39f 28f
9:12  -  2 mph 1030mb 39f 27f
9:06 1 2 mph 1029.9mb 39f 27f
9:00 2 3 mph 1029.8mb 39f 26f
8:54 3
mph
1029.7mb 39f 27f
8:48 3
mph
1029.7mb 39f 27f
8:42 2
mph
1029.7mb 39f 28f
8:36 2
mph
1029.7mb 39f 28f
8:30 2
mph
1029.8mb 39f 27f
8:24 1 2 mph 1029.9mb 39f 26f
8:18 2 3 mph 1029.9mb 39f 24f
8:12 2 3 mph 1030mb 39f 24f
8:06 2 3 mph 1030.1mb 39f 24f
8:00 3 5 mph 1030.1mb 39f 23f
7:54 2 5 mph 1030.2mb 39f 23f
7:48 3
mph
1030.2mb 39f 23f
7:42 2 3 mph 1030.1mb 39f 23f
7:36 2 3 mph 1030mb 39f 23f
7:30 2 3 mph 1030mb 39f 23f
7:24 2 3 mph 1030mb 39f 23f
7:18 2 3 mph 1029.7mb - -
7:12 2 3 mph 1029.8mb 39f 22f
7:06 3
mph
1029.9mb 39f 22f
7:00 3
mph
1030mb 39f 22f
6:54 2 3 mph 1030mb 39f 22f
6:48 2
mph
1030mb 39f 22f
6:42 1 2 mph 1030mb 39f 22f
6:36  -  2 mph 1029.9mb 39f 22f
6:30 2
mph
1029.9mb 39f 22f
6:24 1 2 mph 1029.9mb 39f 22f
6:18 1
mph
1029.9mb 39f 23f
6:12 1 2 mph 1029.9mb 39f 23f
6:06  -  1 mph 1029.9mb 40f 23f
6:00 1 2 mph 1029.8mb 40f 23f
5:54 1 2 mph 1029.8mb 39f 23f
5:48 1 2 mph 1029.8mb 39f -
5:42  -  1 mph 1029.8mb 39f 23f
5:36  -  2 mph 1029.8mb 39f 23f
5:30 2 3 mph 1029.8mb 39f 23f
5:24 1 2 mph 1029.9mb 39f 23f
5:18 1 2 mph 1029.8mb 38f 23f
5:12 1 3 mph 1029.8mb 38f 23f
5:06 2
mph
1029.7mb 38f 23f
5:00 2 3 mph 1029.8mb 38f 23f
4:54 3 5 mph 1029.8mb 38f 23f
4:48 3
mph
1029.8mb 38f 23f
4:42 1 2 mph 1029.8mb 38f 23f
4:36 2 3 mph 1029.9mb 37f 23f
4:30 2 3 mph 1029.9mb 37f 23f
4:24 3
mph
1029.8mb 37f 24f
4:18 1 3 mph - - -
4:12 2
mph
1029.8mb 37f 24f
4:06 2
mph
1029.8mb 37f 24f
4:00 2
mph
1029.9mb 37f 24f
3:54 2 3 mph 1029.9mb 37f 24f
3:48 3
mph
1029.9mb 37f 24f
3:42 2 3 mph 1030mb 37f 24f
3:36 2 3 mph 1030mb 37f 24f
3:30 3 5 mph 1029.9mb 37f 24f
3:24 2 3 mph 1030mb 37f 24f
3:18 2 3 mph 1030mb 37f 24f
3:12 3
mph
1030.1mb 37f 24f
3:06 2
mph
1030.1mb 37f 24f
3:00 2
mph
1030.1mb 38f 25f
2:54  -  2 mph 1030mb 38f 25f
2:48  -  2 mph 1029.9mb 38f 26f
2:42 2 5 mph 1029.8mb 38f 26f
2:36 3 5 mph 1029.9mb 38f 26f
2:30 5
mph
1029.8mb 38f 26f
2:24  -  3 mph 1029.9mb 38f 25f
2:18 2 3 mph 1030mb 38f 25f
2:12  -  3 mph 1030mb 38f 25f
2:06 3
mph
1029.9mb 38f 25f
2:00 2 5 mph 1029.9mb 38f 26f
1:54 3 5 mph 1029.9mb 38f 26f
1:48 3 6 mph 1029.9mb - -
1:42 3 5 mph 1029.8mb - -
1:36 2
mph
1029.8mb - -
1:30  -  3 mph 1029.6mb 38f 26f
1:24 3 5 mph 1029.6mb 38f 26f
1:18 3
mph
1029.5mb 38f 26f
1:12 3
mph
1029.5mb 38f 26f
1:06  -  1 mph 1029.3mb 38f 26f
1:00 1 3 mph 1029.2mb 38f 26f
12:54 3 6 mph 1029.2mb 38f 27f
12:48 6 7 mph 1029.3mb 38f 27f
12:42 3
mph
1029.2mb 38f 27f
12:36 3 5 mph 1029.1mb 38f 27f
12:30 3
mph
1029mb 38f 27f
12:24  -  2 mph 1029mb 38f 27f
12:18  -  2 mph 1028.9mb 38f 27f
12:12 2 3 mph 1028.7mb 38f 27f
12:06 3
mph
1028.7mb 39f 27f
12:00 3
mph
1028.7mb 39f 27f
dom 01/15 11:54 1 2 mph 1028.6mb 39f 27f
11:48 1 2 mph 1028.6mb 39f 28f
11:42  -  2 mph 1028.6mb 39f 28f
11:36  -  2 mph 1028.7mb 39f 28f
11:30 1 3 mph 1028.6mb 39f 28f
11:24 3
mph
1028.8mb 39f 28f
11:18 3 5 mph 1028.9mb 39f 28f
11:12 3
mph
1029mb 39f 28f
11:06 2 3 mph 1029mb 39f 28f
11:00 2 3 mph 1029.1mb 40f 28f
10:54 2 3 mph 1029mb 40f 28f
10:48 2
mph
1028.9mb 40f 28f
10:42  -  1 mph 1028.8mb 40f 28f
10:36  -  1 mph 1028.8mb 40f 28f
10:30  -  1 mph 1028.8mb 40f 28f
10:24  -  1 mph 1028.8mb 40f 29f
10:18  -  1 mph 1028.7mb 40f 29f
10:12  -  1 mph 1028.6mb 40f 29f
10:06  -  1 mph 1028.5mb 40f 29f
10:00  -  1 mph 1028.6mb 40f 29f
9:54 2
mph
1028.5mb 40f 29f
9:48 1 2 mph 1028.6mb 40f 29f
9:42  -  1 mph 1028.6mb 40f 29f
9:36  -  2 mph 1028.6mb 40f 29f
9:30 2 3 mph 1028.6mb 40f 29f
9:24  -  1 mph 1028.6mb 40f 29f
9:18  -  1 mph 1028.5mb 40f 29f
9:12  -  1 mph 1028.4mb 40f 30f
9:06  -  3 mph 1028.5mb 40f 30f
9:00 3
mph
1028.4mb 40f 30f
8:54 2 3 mph 1028.4mb 39f 30f
8:48 2 3 mph 1028.2mb 39f 30f
8:42 3
mph
1028.1mb 39f 31f
8:36 2 5 mph 1028mb 39f 31f
8:30 3 5 mph 1027.9mb 39f 31f
8:24  -  2 mph 1027.8mb 39f 31f
8:18 1 5 mph 1027.7mb 39f 31f
8:12  -  1 mph 1027.8mb 39f 31f
8:06  -  1 mph 1028mb 39f 31f
8:00 1 2 mph 1027.8mb 40f 31f
7:54  -  2 mph 1027.9mb 40f 31f
7:48 2 5 mph 1027.8mb 40f 31f
7:42 3 5 mph 1027.6mb 40f 32f
7:36 3 5 mph 1027.5mb 40f 32f
7:30 2 3 mph 1027.4mb 40f 33f
7:24 2 5 mph 1027.3mb 40f 33f
7:18 2 3 mph 1027.3mb 40f 33f
7:12 2
mph
1027.4mb 40f 34f
7:06  -  1 mph 1027.4mb 40f 33f
7:00  -  2 mph 1027.5mb 40f 33f
6:54 1 5 mph 1027.3mb 40f 34f
6:48 3 5 mph 1027.1mb 40f 34f
6:42 2 3 mph 1027mb 40f 35f
6:36 2 5 mph 1026.9mb 40f 35f
6:30 2 5 mph 1026.8mb 39f 35f
6:24 3 6 mph 1026.9mb 39f 35f
6:18 3 5 mph 1026.8mb 39f 35f
6:12 3 5 mph 1026.9mb 38f 35f
6:06 2 5 mph 1026.8mb 38f 36f
6:00 3 5 mph 1026.7mb 38f 36f
5:54 5 6 mph 1026.5mb 38f 36f
5:48 5 7 mph 1026.4mb 38f 36f
5:42 5 7 mph 1026.3mb 38f 36f
5:36 6 8 mph 1026.3mb 38f 36f
5:30 6 8 mph 1026.3mb 38f 36f
5:24 5 7 mph 1026.2mb 38f 37f
5:18 3 7 mph 1026.1mb 38f 37f
5:12 6 8 mph 1026mb 38f 37f
5:06 5 8 mph 1025.9mb 38f 37f
5:00 6 9 mph 1025.9mb 38f 37f
4:54 6 8 mph 1025.9mb 38f 37f
4:48 6 8 mph 1025.8mb 38f 37f
4:42 5 7 mph 1025.7mb 38f 37f
4:36 3 10 mph 1025.6mb 38f 37f
4:30 5 8 mph 1025.5mb 38f 38f
4:24 6 9 mph 1025.5mb 38f 38f
4:18 7
mph
1025.5mb 38f 38f
4:12 3 9 mph 1025.4mb 38f 38f
4:06 5 6 mph 1025.2mb 38f 39f
4:00 7 9 mph 1025.1mb 38f 38f
3:54 5 8 mph 1025mb 38f 38f
3:48 5 9 mph 1025mb 38f 38f
3:42 8 11 mph 1025mb 38f 39f
3:36 6 9 mph 1025.1mb 38f 38f
3:30 8 13 mph 1025mb 38f 38f
3:24 9 14 mph 1024.9mb 38f 38f
3:18 8 11 mph 1024.8mb 38f 38f
3:12 10 14 mph 1024.8mb 38f 38f
3:06 13 15 mph 1024.8mb 38f 38f
3:00 13 16 mph 1024.8mb 38f 38f
2:54 7 11 mph 1024.8mb 38f 39f
2:48 8 16 mph 1024.7mb 38f 38f
2:42 8 11 mph 1024.6mb 38f 38f
2:36 9 14 mph 1024.5mb 38f 38f
2:30 10 15 mph 1024.5mb 38f 38f
2:24 13 16 mph 1024.4mb 38f 37f
2:18 13 20 mph 1024.3mb 38f 38f
2:12 9 13 mph 1024.3mb 38f 38f
2:06 3 8 mph 1024.2mb 38f 38f
2:00 6 11 mph 1024.2mb 38f 38f
1:54 7 10 mph 1024.1mb 38f 38f
1:48 7 11 mph 1024mb 38f 37f
1:42 7 14 mph 1024mb 38f 38f
1:36 9 16 mph 1024mb 38f 37f
1:30 8 16 mph 1024.1mb 38f 38f
1:24 10 16 mph 1024.1mb 38f 37f
1:18 11 16 mph 1024mb 38f 37f
1:12 8 11 mph 1024mb 38f 37f
1:06 9 14 mph 1024mb 38f 37f
1:00 9 15 mph 1024.1mb 38f 36f
12:54 10 14 mph 1024.1mb 38f 37f
12:48 7 13 mph 1024.1mb 38f 36f
12:42 8 13 mph 1024.2mb 38f 36f
12:36 11 14 mph 1024.3mb 38f 36f
12:30 11 17 mph 1024.3mb 38f 36f
12:24 9 16 mph 1024.3mb 38f 36f
12:18 11 15 mph 1024.5mb 38f 35f
12:12 6 13 mph 1024.5mb 38f 35f
12:06 11 17 mph 1024.6mb 38f 35f
12:00 13 15 mph 1024.6mb 38f 35f
11:54 6 11 mph 1024.7mb 38f 35f
11:48 10 14 mph 1024.7mb 38f 35f
11:42 10 15 mph 1024.8mb 38f 35f
11:36 11 16 mph 1024.8mb 38f 34f
11:30 11 16 mph 1024.9mb 38f 34f
11:24 9 16 mph 1025mb 38f 34f
11:18 13 18 mph 1025.1mb 38f 33f
11:12 11 16 mph 1025.1mb 38f 34f
11:06 13 16 mph 1025.1mb 38f 34f
11:00 11 16 mph 1025.1mb 38f 34f
10:54 11 15 mph 1025.2mb 39f 33f
10:48 8 14 mph 1025.3mb 39f 34f
10:42 8 13 mph 1025.3mb 39f 33f
10:36 11 16 mph 1025.4mb 39f 33f
10:30 11 17 mph 1025.4mb 39f 33f
10:24 13 16 mph 1025.4mb 39f 33f
10:18 8 15 mph 1025.5mb 39f 33f
10:12 11 18 mph 1025.5mb 39f 32f
10:06 9 17 mph 1025.6mb 39f 32f
10:00 13 18 mph 1025.6mb 39f 32f
9:54 10 15 mph 1025.6mb 39f 32f
9:48 13 20 mph 1025.7mb 39f 32f
9:42 15 20 mph 1025.7mb 39f 31f
9:36 14 20 mph 1025.7mb 39f 31f
9:30 10 18 mph 1025.6mb 39f 32f
9:24 10 16 mph 1025.6mb 39f 32f
9:18 15 20 mph 1025.6mb 39f 31f
9:12 10 17 mph 1025.5mb 39f 31f
9:06 9 14 mph 1025.5mb 39f 31f
9:00 9 14 mph 1025.5mb 39f 31f
8:54 10 14 mph 1025.5mb 39f 30f
8:48 8 14 mph 1025.4mb 38f 30f
8:42 9 17 mph 1025.4mb 39f 30f
8:36 7 10 mph 1025.2mb 39f 30f
8:30 6 10 mph 1025.2mb 39f 30f
8:24 7 11 mph 1025mb 39f 29f
8:18 8 13 mph 1025mb 39f 29f
8:12 8 13 mph 1025mb 39f 29f
8:06 9 13 mph 1024.8mb 39f 29f
8:00 9 11 mph 1024.7mb 39f 28f
7:54 7 11 mph 1024.7mb 39f 28f
7:48 8 10 mph 1024.5mb 39f 28f
7:42 7 11 mph 1024.3mb 39f 28f
7:36 7 11 mph 1024.3mb 39f 28f
7:30 9 14 mph 1024.3mb 39f 28f
7:24 6 13 mph 1024.1mb 39f 28f
7:18 9 11 mph 1024mb 39f 28f
7:12 6 9 mph 1024mb 39f 28f
7:06 5 9 mph 1023.8mb 39f 28f
7:00 6 7 mph 1023.7mb 39f 28f
6:54 6 10 mph 1023.6mb 39f 28f
6:48 5 7 mph 1023.6mb 39f 28f
6:42 6 8 mph 1023.6mb 39f 28f
6:36 6 10 mph 1023.6mb 39f 28f
6:30 6 8 mph 1023.6mb 39f 29f
6:24 7 10 mph 1023.3mb 39f 28f
6:18 3 7 mph 1023.3mb 39f 29f
6:12 7 10 mph 1023.3mb 39f 29f
6:06 6 9 mph 1023.3mb 39f 29f
6:00 6 9 mph 1023.1mb 39f 29f
5:54 6 10 mph 1023mb 39f 29f
5:48 6 9 mph 1022.8mb 39f 29f
5:42 8 10 mph 1022.7mb 39f 29f
5:36 8 10 mph 1022.7mb 39f 29f
5:30 6 11 mph 1022.7mb 40f 29f
5:24 9 14 mph 1022.6mb 40f 29f
5:18 6 13 mph 1022.7mb 40f 29f
5:12 8 11 mph 1022.6mb 40f 29f
5:06 7 11 mph 1022.7mb 40f 29f
5:00 8 10 mph 1022.6mb 40f 29f
4:54 7 10 mph 1022.6mb 40f 29f
4:48 7 10 mph 1022.6mb 39f 29f
4:42 8 11 mph 1022.6mb 39f 29f
4:36 5 9 mph 1022.6mb 38f 29f
4:30 3 7 mph 1022.6mb 38f 29f
4:24 3 8 mph 1022.7mb 38f 29f
4:18 6 10 mph 1022.7mb 38f 29f
4:12 6 10 mph 1022.6mb 38f 29f
4:06 8 10 mph 1022.8mb 38f 29f
4:00 7 10 mph 1022.8mb 38f 30f
3:54 6 11 mph 1022.8mb 38f 30f
3:48 8 14 mph 1022.8mb 37f 30f
3:42 7 14 mph 1022.9mb 37f 30f
3:36 6 8 mph 1022.9mb 37f 30f
3:30 6 8 mph 1022.9mb 37f 30f
3:24 3 7 mph 1023mb 37f 30f
3:18 5 8 mph 1023.1mb 37f 31f
3:12 3 8 mph 1023.1mb 37f 31f
3:06 6 10 mph 1023.1mb 37f 31f
3:00 6 7 mph 1023.1mb 37f 31f
2:54 6 9 mph 1023.1mb 37f 31f
2:48 6 10 mph 1023.2mb 37f 31f
2:42 8 11 mph 1023.2mb 37f 31f
2:36 8 10 mph 1023.2mb 37f 31f
2:30 3 9 mph 1023.2mb 37f 31f
2:24 7 11 mph 1023.2mb 37f 31f
2:18 6 11 mph 1023.2mb 37f 31f
2:12 9 13 mph 1023.2mb 38f 31f
2:06 10 13 mph 1023.2mb 38f 31f
2:00 8 13 mph 1023.3mb 38f 31f
1:54 8 13 mph 1023.4mb 38f 31f
1:48 10 11 mph 1023.3mb 38f -
1:42 8 14 mph 1023.4mb 38f -
1:36 8 14 mph 1023.4mb 38f -
1:30 9 14 mph 1023.4mb 38f 31f
1:24 8 15 mph 1023.4mb 38f 32f
1:18 8 14 mph 1023.4mb 38f -
1:12 7 11 mph 1023.4mb 38f 32f
1:06 9 13 mph 1023.5mb 38f 32f
1:00 7 9 mph 1023.6mb - -
12:54 7 9 mph 1023.6mb 38f 32f
12:48 6 8 mph 1023.7mb 38f 32f
12:42 7 9 mph 1023.7mb - -
12:36 3 9 mph 1023.7mb - -
12:30 6 9 mph 1023.8mb 38f 31f
12:24 6 9 mph 1024mb 38f 31f
12:18 3 8 mph 1024.1mb 38f 31f
12:12 5 8 mph 1024.2mb 38f 31f
12:06 6 9 mph 1024.4mb 38f 31f
12:00 7 10 mph 1024.5mb 38f 31f
sáb 01/14 11:54 5 8 mph 1024.6mb 38f 31f
11:48 7 10 mph 1024.7mb 38f 31f
11:42 5 7 mph 1024.7mb 38f 31f
11:36 7 10 mph 1024.8mb 38f 31f
11:30 5 13 mph 1024.8mb 38f 31f
11:24 7 10 mph 1025.1mb 38f 31f
11:18 7 11 mph 1025.2mb 38f 31f
11:12 5 9 mph 1025.4mb 38f 31f
11:06 6 8 mph 1025.5mb 38f 31f
11:00 6 8 mph 1025.5mb 38f 31f
10:54 7 9 mph 1025.6mb 38f 30f
10:48 5 9 mph 1025.8mb 38f 30f
10:42 7 9 mph 1025.9mb 38f 30f
10:36 7 9 mph 1025.9mb 38f 30f
10:30 8 10 mph 1025.9mb 38f 30f
10:24 6 7 mph 1026.1mb 38f 30f
10:18 6 9 mph 1026.3mb - -
10:12 5 10 mph 1026.5mb 38f 30f
10:06 7 10 mph 1026.6mb 38f 30f
10:00 7 10 mph 1026.6mb 38f 30f
9:54 5 9 mph 1026.8mb 38f 29f
9:48 7 8 mph 1026.8mb 38f 29f
9:42 5 8 mph 1026.9mb 39f 29f
9:36 6 9 mph 1026.9mb 39f 29f
9:30 5 7 mph 1027mb 39f 29f
9:24 6 9 mph 1027.1mb 39f 29f
9:18 5 9 mph 1027.1mb 39f 29f
9:12 7 9 mph 1027.2mb 39f 29f
9:06 6 11 mph 1027.2mb 39f 29f
9:00 9 11 mph 1027.3mb 39f 29f
8:54 8 10 mph 1027.4mb 39f 29f
8:48 5 8 mph 1027.5mb 39f 29f
8:42 7 9 mph 1027.4mb 39f 29f
8:36 5 10 mph 1027.6mb 39f 29f
8:30 7 10 mph 1027.6mb 39f 29f
8:24 7 9 mph 1027.7mb 39f 29f
8:18 5 8 mph 1027.9mb 39f 29f
8:12 5 9 mph 1028mb 39f 29f
8:06 5 7 mph 1028.1mb 39f 29f
8:00 6 11 mph 1028.3mb 39f 29f
7:54 6 9 mph 1028.3mb 39f 29f
7:48 7 11 mph 1028.5mb 39f 29f
7:42 9 11 mph 1028.6mb 39f 29f
7:36 7 9 mph 1028.7mb 39f 29f
7:30 6 9 mph 1028.7mb 39f 29f
7:24 5 8 mph 1028.9mb 39f 29f
7:18 7 9 mph 1028.9mb 39f -
7:12 6 8 mph 1028.9mb 39f 29f
7:06 6 9 mph 1029mb 39f 29f
7:00 6 9 mph 1029.1mb 39f 29f
6:54 8 11 mph 1029.1mb 40f 29f
6:48 8 10 mph 1029.1mb 40f 29f
6:42 8 11 mph 1029.3mb 40f 29f
6:36 9 11 mph 1029.4mb 40f 29f
6:30 9 11 mph 1029.5mb 40f 29f
6:24 7 13 mph 1029.5mb 40f 29f
6:18 6 13 mph 1029.7mb 40f 29f
6:12 9 11 mph 1029.7mb 40f 29f
6:06 10 14 mph 1029.7mb 40f 29f
6:00 9 14 mph 1029.8mb 40f 29f
5:54 10 13 mph 1029.8mb 40f 29f
5:48 10 14 mph 1030mb 40f 29f
5:42 9 14 mph 1030.1mb 39f 29f
5:36 10 13 mph 1030mb 39f 29f
5:30 7 11 mph 1030.1mb 38f 30f
5:24 10 14 mph 1030.2mb 38f 30f
5:18 7 10 mph 1030.3mb 38f 30f
5:12 7 10 mph 1030.3mb 38f 31f
5:06 7 10 mph 1030.4mb 38f 31f
5:00 9 13 mph 1030.5mb 38f 31f
4:54 10 14 mph 1030.5mb 38f 31f
4:48 9 13 mph 1030.6mb 38f 31f
4:42 6 10 mph 1030.7mb 38f 31f
4:36 5 7 mph 1030.8mb 38f 30f
4:30 6 8 mph 1030.8mb 38f 30f
4:24 6 7 mph 1030.8mb 38f 30f
4:18 6 7 mph 1031mb 38f 30f
4:12 6
mph
1031mb 38f 30f
4:06 7 9 mph 1031.3mb 38f 30f
4:00 9 11 mph 1031.3mb 38f 30f
3:54 10 13 mph 1031.5mb 38f 30f
3:48 8 11 mph 1031.7mb 38f 30f
3:42 8 13 mph 1031.7mb 38f 29f
3:36 9 13 mph 1031.7mb 38f 29f
3:30 10 14 mph 1031.8mb 38f 29f
3:24 9 11 mph 1031.9mb 38f 29f
3:18 7 11 mph 1032mb 38f 30f
3:12 10 14 mph 1032mb 37f 29f
3:06 10 13 mph 1032.3mb 37f 29f
3:00 10 14 mph 1032.4mb 37f 29f
2:54 9 13 mph 1032.6mb 37f 29f
2:48 9 15 mph 1032.5mb 37f 29f
2:42 10 13 mph 1032.6mb 37f 28f
2:36 10 13 mph 1032.6mb 37f 29f
2:30 7 11 mph 1032.4mb 37f 29f
2:24 10 14 mph 1032.5mb 37f 28f
2:18 10 13 mph 1032.6mb 37f 28f
2:12 9 14 mph 1032.7mb 37f 28f
2:06 10 14 mph 1032.9mb 37f 28f
2:00 9 11 mph 1032.9mb 37f 28f
1:54 9 14 mph 1033mb 37f 28f
1:48 9 13 mph 1033mb 38f 28f
1:42 10 11 mph 1033.1mb 38f 28f
1:36 8 10 mph 1033.2mb 38f 29f
1:30 7 9 mph 1033.2mb 38f 28f
1:24 5 7 mph 1033.3mb 38f 29f
1:18 3 6 mph 1033.5mb 38f 29f
1:12 3 7 mph 1033.5mb 38f 30f
1:06 5 7 mph 1033.7mb 38f 29f
1:00 3 6 mph 1033.8mb 38f 30f
12:54 7 9 mph 1034.1mb 38f 29f
12:48 6 9 mph 1034.2mb 38f 29f
12:42 3 6 mph 1034.3mb 38f 29f
12:36 3 6 mph 1034.4mb 38f 28f
12:30 3 9 mph 1034.7mb 38f 28f
12:24 6 9 mph 1034.9mb 38f 29f
12:18 3 9 mph 1035.1mb 38f 28f
12:12 7 9 mph 1035.1mb 38f 28f
12:06 5 8 mph 1035.4mb 38f 28f
12:00 6 9 mph 1035.5mb 38f 28f
11:54 3 5 mph 1035.5mb 38f 28f
11:48 2 6 mph 1035.7mb 38f 28f
11:42 3 7 mph 1035.8mb 38f 27f
11:36 5 8 mph 1036.1mb 38f 28f
11:30 1 5 mph 1036.2mb 38f 28f
11:24 2 3 mph 1036.3mb 38f 27f
11:18  -  6 mph 1036.3mb 38f 28f
11:12 2 7 mph 1036.5mb 39f 27f
11:06 2 5 mph 1036.6mb 39f 26f
11:00 2 3 mph 1036.8mb 39f 26f
10:54 3 7 mph 1036.9mb 39f 26f
10:48 6 7 mph 1037.3mb 39f 26f
10:42 3 6 mph 1037.4mb 39f 26f
10:36 2 5 mph 1037.5mb 39f 26f
10:30 5 6 mph 1037.6mb 39f 26f
10:24 2 7 mph 1037.7mb 40f 26f
10:18 6 8 mph 1037.9mb 40f 26f
10:12 7 9 mph 1038.2mb 40f 25f
10:06 3 7 mph 1038.4mb 40f 25f
10:00 3 7 mph 1038.5mb 40f 25f
9:54 3 7 mph 1038.5mb 40f 25f
9:48 5 9 mph 1038.5mb 40f 24f
9:42 6 9 mph 1038.6mb 40f 24f
9:36 5 8 mph 1038.7mb 40f 23f
9:30 5 8 mph 1038.8mb 40f 23f
9:24 5 7 mph 1038.6mb 40f 23f
9:18 3 8 mph 1038.9mb 40f 23f
9:12 5 8 mph 1038.8mb 40f 22f
9:06 2 6 mph 1038.8mb 40f 22f
9:00 5 7 mph 1039.1mb 40f 23f
8:54 5 7 mph 1039.2mb 40f 23f
8:48 6 8 mph 1039mb 40f 24f
8:42 5 9 mph 1039.1mb 40f 23f
8:36 8 10 mph 1039.1mb 40f 24f
8:30 8 9 mph 1039mb 40f 25f
8:24 7 9 mph 1038.9mb 40f 25f
8:18 7 10 mph 1039mb 40f 24f
8:12 8 9 mph 1039mb 40f 23f
8:06 6 8 mph 1039.1mb 40f 24f
8:00 6 10 mph 1039.1mb 40f 23f
7:54 8 9 mph 1039mb 40f 23f
7:48 7 9 mph 1039mb 40f 24f
7:42 7 9 mph 1038.9mb 40f 23f
7:36 7 9 mph 1038.9mb 40f 23f
7:30 5 8 mph 1038.9mb 40f 23f
7:24 7 9 mph 1038.8mb 40f 22f
7:18 7 10 mph 1038.7mb 40f -
7:12 7 10 mph 1038.6mb 39f 22f
7:06 7 10 mph 1038.6mb 40f 22f
7:00 8 11 mph 1038.7mb 40f 22f
6:54 8 10 mph 1038.7mb 40f 23f
6:48 8 10 mph 1038.7mb 40f 23f
6:42 6 10 mph 1038.7mb 40f 23f
6:36 7 9 mph 1038.9mb 40f 23f
6:30 7 9 mph 1039mb 40f 23f
6:24 7 10 mph 1038.9mb 40f 23f
6:18 7 10 mph 1038.9mb 40f 23f
6:12 7 10 mph 1038.9mb 40f 23f
6:06 6 8 mph 1038.8mb 40f 23f
6:00 6 8 mph 1038.9mb 40f 24f
5:54 6 8 mph 1038.9mb 40f 24f
5:48 7 9 mph 1038.9mb 40f -
5:42 7 8 mph 1038.8mb 40f 24f
5:36 6 9 mph 1038.8mb 40f 24f
5:30 7 9 mph 1038.6mb 40f 24f
5:24 7 9 mph 1038.6mb 40f 24f
5:18 7 8 mph 1038.7mb 40f 24f
5:12 6 9 mph 1038.7mb 40f 24f
5:06 7 9 mph 1038.7mb 40f 24f
5:00 7 11 mph 1038.7mb 40f 25f
4:54 9 11 mph 1038.7mb 40f 25f
4:48 9 10 mph 1038.8mb 40f 24f
4:42 8 10 mph 1038.8mb 40f 25f
4:36 9 10 mph 1038.8mb 40f 25f
4:30 6 10 mph 1038.9mb 40f 25f
4:24 8 10 mph 1038.9mb 40f 25f
4:18 5 8 mph 1039mb - -
4:12 6 8 mph 1039mb 40f 25f
4:06 6 9 mph 1039mb 39f 25f
4:00 6 9 mph 1039mb 39f 26f
3:54 7 9 mph 1039mb 39f 26f
3:48 7 9 mph 1038.9mb 39f 26f
3:42 6 9 mph 1038.9mb 39f 26f
3:36 7 9 mph 1038.9mb 39f 26f
3:30 6 11 mph 1038.9mb 39f 26f
3:24 8 10 mph 1038.9mb 39f 26f
3:18 9 14 mph 1038.9mb 38f 26f
3:12 11 15 mph 1038.8mb 38f 26f
3:06 9 14 mph 1038.7mb 38f 26f
3:00 6 10 mph 1038.7mb 38f 26f
2:54 9 13 mph 1038.7mb 38f 26f
2:48 8 14 mph 1038.6mb 38f 27f
2:42 10 14 mph 1038.7mb 38f 27f
2:36 11 15 mph 1038.6mb 38f 27f
2:30 9 15 mph 1038.8mb 38f 27f
2:24 8 15 mph 1038.7mb 38f 27f
2:18 10 15 mph 1038.6mb 38f 27f
2:12 11 15 mph 1038.5mb 38f 27f
2:06 9 14 mph 1038.5mb 38f 27f
2:00 8 15 mph 1038.4mb 38f 27f
1:54 11 15 mph 1038.2mb 38f 27f
1:48 11 15 mph 1038.3mb 38f -
1:42 10 14 mph 1038.3mb 38f -
1:36 9 14 mph 1038.2mb 38f -
1:30 10 17 mph 1038mb 38f 28f
1:24 14 18 mph 1037.9mb 38f 28f
1:18 8 14 mph 1037.9mb 38f 28f
1:12 10 15 mph 1037.9mb 38f 28f
1:06 9 17 mph 1037.7mb 38f 28f
1:00 11 20 mph 1037.6mb 38f 28f
12:54 11 20 mph 1037.6mb 38f 28f
12:48 10 15 mph 1037.7mb 38f 29f
12:42 10 16 mph 1037.7mb 38f 29f
12:36 10 16 mph 1037.6mb 39f 29f
12:30 10 16 mph 1037.6mb 39f 29f
12:24 8 11 mph 1037.6mb 39f 29f
12:18 8 11 mph 1037.6mb 39f -
12:12 7 13 mph 1037.3mb 39f 30f
12:06 9 13 mph 1037.4mb 39f 30f
12:00 10 15 mph 1037.3mb 39f 30f
vie 01/13 11:54 10 14 mph 1037.3mb 39f 30f
11:48 13 17 mph 1037.3mb 39f 30f
11:42 7 14 mph 1037.1mb 39f 30f
11:36 11 16 mph 1037mb 39f 30f
11:30 11 15 mph 1037.1mb 39f 31f
11:24 9 16 mph 1037.2mb 39f 31f
11:18 8 13 mph 1037.2mb 39f 31f
11:12 10 16 mph 1037.1mb 39f 31f
11:06 7 11 mph 1037.1mb 39f 31f
11:00 8 13 mph 1037.2mb 39f 31f
10:54 9 16 mph 1037.1mb 39f 31f
10:48 13 17 mph 1036.9mb 39f 31f
10:42 13 18 mph 1036.8mb 39f 32f
10:36 15 20 mph 1036.7mb 39f 32f
10:30 15 21 mph 1036.7mb 39f 32f
10:24 13 15 mph 1036.6mb 39f 32f
10:18 11 20 mph 1036.6mb 39f 32f
10:12 14 20 mph 1036.4mb 39f 32f
10:06 11 17 mph 1036.3mb 39f 33f
10:00 11 20 mph 1036.3mb 40f -